Regional Weather Roundup
Issued by NWS

Home | Current Version | Previous Version | Graphics & Text | Print | Product List | Glossary On
Versions: 1 2 3 4 5 6 7 8 9 10 11 12 13 14 15 16 17 18 19 20 21 22 23 24 25 26 27 28 29 30 31 32 33 34 35 36 37 38 39 40 41 42 43 44 45 46 47 48 49 50
000
ASUS43 KLMK 240702
RWRKY
KENTUCKY REGIONAL WEATHER ROUNDUP
NATIONAL WEATHER SERVICE LOUISVILLE KY
300 AM EDT WED MAY 24 2017

NOTE "FAIR" INDICATES FEW OR NO CLOUDS BELOW 12,000 FEET
WITH NO SIGNIFICANT WEATHER AND/OR OBSTRUCTIONS TO VISIBILITY.

KYZ001>023-026-027-061>063-070>075-240800-
WESTERN AND SOUTH CENTRAL KENTUCKY

CITY           SKY/WX    TMP DP  RH WIND       PRES   REMARKS
PADUCAH        CLOUDY    62  57  83 NW6       29.60F
HENDERSON      CLOUDY    64  56  75 NW3       29.59F
OWENSBORO      CLOUDY    64  56  75 CALM      29.59F
HOPKINSVILLE   MOCLDY    65  55  69 N3        29.57F
BOWLING GREEN  CLOUDY    66  56  70 CALM      29.59F
GLASGOW        NOT AVBL
$$

KYZ024-025-028>034-038-045-046-053-240800-
NORTH CENTRAL KENTUCKY

CITY           SKY/WX    TMP DP  RH WIND       PRES   REMARKS
LOUISVILLE/SDF CLOUDY    66  55  67 SE5       29.56F
LOUISVILLE/LOU MOCLDY    64  60  87 SE5       29.58F
FORT KNOX      CLOUDY    60  58  92 CALM      29.56F
$$

KYZ035>037-039>044-047>052-055>060-089>105-240800-
NORTHEAST KENTUCKY

CITY           SKY/WX    TMP DP  RH WIND       PRES   REMARKS
LEXINGTON      CLOUDY    59  56  89 SE6       29.60F
COVINGTON      CLOUDY    62  59  90 S5        29.59F
FRANKFORT      MOCLDY    60  56  86 SE3       29.59F
$$

KYZ054-064>069-076>088-106>120-240800-
SOUTHEAST KENTUCKY

CITY           SKY/WX    TMP DP  RH WIND       PRES   REMARKS
JACKSON        CLOUDY    59  59 100 CALM      29.62F FOG
LONDON         FOG       56  55  97 CALM      29.62F VSB 1/2
SOMERSET       CLEAR     55  55 100 CALM      29.62F
MIDDLESBORO    CLOUDY    59  59 100 CALM      29.64F FOG
MONTICELLO     MOSUNNY   58  57  97 CALM      29.63F
$$





USA.gov is the U.S. government's official web portal to all federal, state and local government web resources and services.